Temp
-10 -10 -10 -10 -10 -10 -10 -10 -10 -10 -10 -10 -10 -10 -10 -10 -10 -10 -10 -10 -10 -10 -10 -10 -10 -10 -10 -10 -10 -10 -10 -10 -10 -10 -10 -10 -10 -10 -10 -10 -10 -11 -11 -10 -10
-10 -10 -10 -10 -10 -10 -10 -10 -10 -10 -10 -10 -10 -10 -10 -10 -10 -10 -10 -10 -10 -10 -10 -10 -10 -10 -10 -10 -10 -10 -10 -10 -10 -10 -10 -10 -10 -10 -10 -10 -10 -11 -10 -11 -11
-11 -11 -11 -10 -10 -10 -10 -10 -10 -10 -10 -10 -10 -10 -10 -10 -10 -10 -10 -10 -10 -10 -10 -10 -10 -10 -10 -10 -10 -10 -10 -10 -10 -10 -10 -10 -10 -10 -10 -10 -11 -11 -10 -11 -11
-11 -11 -11 -11 -11 -10 -10 -10 -10 -10 -10 -10 -10 -10 -10 -10 -10 -10 -10 -10 -10 -10 -10 -10 -10 -10 -10 -10 -10 -10 -10 -10 -10 -10 -10 -10 -10 -10 -10 -10 -11 -11 -10 -11 -10
-12 -12 -11 -11 -11 -11 -10 -10 -10 -10 -10 -10 -10 -10 -10 -10 -10 -10 -10 -10 -10 -10 -10 -10 -10 -10 -10 -10 -10 -10 -10 -10 -10 -10 -10 -10 -10 -10 -11 -11 -10 -10 -11 -11 -11
-13 -13 -12 -12 -11 -11 -11 -11 -10 -10 -10 -10 -10 -10 -10 -10 -10 -10 -10 -10 -10 -10 -10 -10 -10 -10 -10 -10 -10 -10 -10 -10 -10 -10 -10 -10 -10 -10 -11 -10 -10 -10 -10 -10 -10
-13 -13 -13 -12 -12 -11 -11 -11 -11 -11 -11 -11 -10 -10 -10 -10 -10 -10 -10 -10 -10 -10 -10 -10 -10 -10 -10 -10 -10 -10 -10 -10 -10 -10 -10 -10 -10 -10 -10 -11 -10 -10 -10 -10 -10
-14 -14 -13 -13 -13 -12 -12 -11 -11 -11 -11 -11 -11 -10 -10 -10 -10 -11 -10 -10 -10 -10 -10 -10 -10 -10 -10 -10 -10 -10 -10 -10 -10 -10 -10 -10 -10 -10 -10 -10 -10 -10 -10 -10 -10
-14 -14 -13 -13 -13 -13 -12 -12 -12 -11 -11 -11 -11 -11 -11 -11 -11 -11 -11 -11 -11 -10 -10 -10 -10 -10 -10 -10 -10 -10 -10 -10 -10 -10 -10 -10 -10 -10 -10 -10 -10 -10 -10 -10 -10
-14 -14 -14 -13 -13 -13 -13 -12 -12 -11 -11 -11 -11 -11 -11 -11 -11 -11 -11 -11 -11 -11 -11 -10 -10 -10 -10 -10 -11 -10 -10 -10 -10 -10 -10 -10 -10 -10 -10 -10 -10 -10 -10 -11 -10
-15 -15 -14 -14 -13 -13 -13 -13 -12 -12 -12 -12 -11 -11 -11 -11 -11 -11 -11 -11 -11 -11 -11 -11 -10 -10 -11 -11 -11 -10 -10 -10 -10 -11 -10 -10 -10 -10 -10 -10 -10 -10 -10 -10 -11
-16 -15 -15 -14 -14 -13 -13 -13 -13 -12 -12 -12 -12 -11 -11 -11 -11 -11 -11 -11 -11 -11 -11 -11 -10 -11 -11 -11 -11 -11 -11 -11 -11 -11 -10 -10 -10 -10 -10 -10 -10 -10 -10 -11 -10
-15 -16 -15 -15 -14 -14 -14 -14 -14 -13 -12 -12 -12 -11 -11 -11 -11 -11 -11 -11 -11 -11 -11 -11 -11 -11 -11 -11 -11 -11 -11 -12 -12 -12 -11 -11 -9 -10 -10 -10 -10 -10 -10 -10 -11
-16 -15 -15 -15 -14 -15 -14 -14 -14 -14 -13 -11 -12 -12 -11 -11 -11 -11 -11 -11 -11 -11 -11 -11 -11 -11 -11 -11 -11 -11 -12 -12 -12 -12 -11 -11 -9 -9 -10 -11 -10 -11 -10 -10 -11
-17 -17 -16 -15 -15 -15 -15 -15 -15 -14 -14 -13 -12 -11 -12 -12 -11 -11 -12 -12 -11 -12 -12 -11 -11 -12 -11 -11 -12 -12 -12 -12 -13 -12 -12 -11 -10 -8 -10 -10 -11 -11 -11 -10 -11
-17 -17 -17 -16 -15 -15 -15 -15 -15 -16 -14 -13 -12 -12 -12 -12 -12 -12 -12 -12 -12 -12 -12 -12 -11 -11 -11 -12 -12 -12 -12 -13 -12 -12 -11 -11 -11 -9 -9 -10 -10 -11 -11 -10 -11
-16 -16 -16 -17 -15 -15 -15 -15 -14 -15 -13 -13 -12 -12 -12 -12 -12 -12 -12 -12 -12 -12 -11 -12 -12 -12 -12 -12 -12 -13 -13 -13 -13 -12 -11 -11 -10 -9 -10 -10 -11 -11 -11 -11 -11
-16 -16 -16 -17 -17 -17 -17 -16 -16 -14 -14 -13 -13 -13 -13 -13 -13 -12 -12 -12 -12 -12 -12 -13 -13 -13 -13 -13 -13 -13 -13 -13 -13 -13 -12 -11 -10 -9 -10 -11 -11 -11 -11 -11 -11
-17 -17 -16 -16 -16 -17 -18 -17 -16 -14 -14 -14 -15 -15 -14 -14 -14 -13 -13 -12 -12 -13 -13 -14 -14 -14 -14 -13 -14 -13 -13 -14 -14 -13 -12 -11 -10 -10 -10 -11 -11 -12 -12 -12 -11
-18 -18 -17 -16 -16 -18 -19 -17 -15 -15 -15 -15 -15 -15 -15 -15 -15 -14 -13 -12 -12 -14 -14 -15 -15 -14 -14 -14 -14 -14 -14 -14 -14 -13 -13 -11 -10 -10 -10 -10 -11 -12 -12 -12 -12
-19 -18 -17 -18 -18 -18 -19 -17 -16 -16 -16 -16 -15 -15 -15 -15 -15 -14 -13 -13 -13 -14 -15 -15 -15 -13 -14 -13 -14 -14 -14 -15 -15 -14 -13 -12 -10 -10 -10 -11 -11 -11 -12 -12 -13
-20 -19 -18 -19 -19 -19 -19 -19 -16 -16 -16 -17 -16 -16 -15 -16 -16 -15 -13 -13 -14 -15 -15 -16 -16 -15 -14 -14 -14 -14 -14 -14 -14 -14 -14 -13 -8 -11 -11 -11 -12 -12 -12 -12 -13
-20 -19 -19 -20 -20 -19 -19 -18 -17 -17 -16 -16 -16 -15 -16 -16 -16 -14 -14 -14 -15 -15 -15 -15 -15 -15 -14 -14 -14 -14 -14 -14 -15 -15 -12 -13 -8 -11 -11 -12 -13 -13 -13 -13 -13
-21 -20 -20 -21 -20 -20 -19 -18 -18 -17 -16 -17 -16 -16 -16 -16 -16 -14 -14 -14 -14 -14 -16 -16 -16 -14 -13 -14 -15 -15 -15 -15 -15 -14 -13 -11 -11 -11 -12 -13 -13 -13 -13 -13 -13
-22 -21 -20 -21 -20 -20 -20 -19 -19 -18 -17 -17 -17 -16 -16 -16 -16 -15 -15 -15 -15 -15 -16 -16 -15 -15 -15 -15 -15 -15 -15 -16 -15 -13 -15 -10 -12 -12 -13 -14 -14 -13 -13 -13 -13
-23 -22 -22 -21 -21 -21 -20 -20 -20 -19 -19 -18 -18 -16 -16 -17 -16 -15 -16 -16 -16 -16 -16 -16 -15 -16 -15 -15 -16 -16 -16 -14 -14 -13 -13 -12 -10 -12 -14 -15 -14 -14 -13 -13 -14
-24 -23 -22 -22 -21 -22 -21 -20 -20 -19 -19 -19 -18 -18 -18 -16 -16 -16 -17 -16 -16 -16 -16 -16 -16 -16 -15 -16 -16 -16 -11 -15 -15 -15 -14 -13 -10 -14 -14 -14 -14 -14 -14 -14 -14
Height
5818 5822 5826 5829 5832 5835 5839 5841 5844 5846 5849 5851 5854 5856 5858 5859 5862 5864 5865 5868 5870 5872 5874 5876 5878 5879 5880 5881 5882 5883 5884 5884 5883 5884 5885 5883 5882 5882 5884 5883 5883 5884 5884 5884 5883
5813 5816 5821 5824 5826 5830 5834 5837 5840 5843 5845 5848 5851 5854 5856 5858 5860 5862 5863 5866 5868 5871 5873 5874 5876 5877 5879 5879 5880 5881 5882 5882 5882 5882 5883 5882 5881 5881 5882 5881 5882 5882 5882 5882 5882
5807 5810 5814 5818 5821 5825 5829 5832 5835 5838 5842 5845 5848 5850 5853 5855 5858 5860 5861 5864 5866 5868 5870 5872 5873 5875 5876 5877 5878 5878 5880 5880 5879 5879 5880 5879 5880 5878 5879 5880 5878 5877 5879 5879 5879
5800 5804 5808 5812 5815 5819 5823 5827 5831 5835 5837 5841 5844 5847 5850 5853 5856 5857 5859 5861 5864 5866 5867 5869 5871 5872 5873 5874 5874 5876 5877 5877 5876 5876 5877 5876 5876 5876 5876 5877 5876 5874 5875 5876 5876
5794 5797 5801 5805 5809 5813 5817 5821 5825 5830 5833 5836 5839 5842 5846 5849 5851 5853 5856 5858 5860 5862 5864 5866 5868 5868 5869 5870 5870 5872 5872 5873 5874 5873 5874 5873 5873 5873 5873 5871 5872 5872 5872 5871 5872
5787 5790 5794 5798 5803 5807 5811 5815 5818 5823 5827 5831 5834 5838 5841 5845 5846 5850 5852 5854 5856 5859 5860 5862 5863 5865 5866 5867 5867 5867 5868 5869 5870 5869 5870 5869 5869 5870 5869 5867 5867 5868 5868 5868 5868
5778 5783 5787 5791 5795 5800 5804 5808 5812 5816 5821 5825 5828 5832 5836 5839 5841 5845 5847 5850 5852 5854 5856 5857 5859 5861 5862 5863 5862 5863 5864 5864 5864 5864 5865 5864 5866 5866 5864 5864 5863 5863 5863 5864 5864
5770 5774 5779 5784 5788 5792 5796 5801 5805 5809 5814 5818 5822 5826 5830 5833 5836 5839 5842 5844 5847 5849 5850 5852 5853 5855 5857 5858 5858 5858 5858 5857 5858 5858 5859 5859 5863 5859 5860 5859 5859 5859 5859 5859 5859
5763 5767 5770 5775 5780 5784 5789 5793 5797 5802 5806 5810 5815 5819 5823 5827 5830 5833 5836 5839 5840 5842 5844 5846 5848 5850 5851 5853 5854 5853 5851 5851 5853 5853 5852 5851 5854 5854 5852 5853 5853 5854 5854 5854 5854
5753 5758 5763 5767 5772 5776 5780 5785 5789 5794 5798 5802 5806 5813 5817 5821 5823 5825 5829 5831 5833 5835 5838 5840 5841 5843 5847 5846 5847 5845 5846 5847 5846 5846 5846 5845 5846 5845 5846 5847 5847 5848 5848 5849 5849
5742 5746 5753 5758 5763 5767 5772 5776 5782 5785 5788 5794 5799 5803 5807 5811 5814 5817 5820 5824 5826 5829 5831 5831 5834 5839 5839 5837 5839 5839 5839 5840 5840 5837 5836 5836 5837 5837 5837 5838 5841 5842 5842 5843 5843
5729 5735 5741 5747 5751 5758 5762 5767 5770 5774 5778 5784 5788 5794 5799 5802 5807 5810 5812 5815 5818 5820 5821 5825 5828 5830 5830 5830 5831 5832 5831 5832 5831 5828 5827 5827 5827 5829 5828 5832 5833 5833 5836 5836 5836
5716 5724 5729 5734 5740 5749 5753 5757 5758 5760 5764 5776 5779 5784 5789 5793 5796 5802 5803 5805 5809 5811 5814 5816 5819 5821 5821 5823 5823 5824 5824 5824 5821 5819 5815 5815 5814 5819 5822 5822 5825 5826 5828 5829 5828
5702 5709 5715 5722 5731 5734 5743 5741 5745 5749 5750 5763 5771 5773 5778 5782 5784 5790 5794 5796 5799 5804 5804 5805 5811 5813 5814 5815 5814 5815 5815 5814 5813 5808 5807 5807 5798 5810 5816 5815 5817 5819 5818 5818 5819
5691 5697 5701 5709 5714 5723 5728 5729 5732 5737 5735 5750 5756 5762 5766 5769 5774 5781 5784 5786 5788 5793 5795 5799 5800 5802 5803 5807 5805 5807 5805 5804 5802 5799 5795 5797 5794 5800 5808 5810 5811 5810 5810 5808 5809
5680 5687 5689 5692 5702 5711 5713 5717 5718 5719 5723 5731 5738 5748 5751 5758 5762 5766 5772 5776 5779 5780 5784 5787 5788 5792 5795 5796 5795 5796 5796 5794 5792 5790 5781 5794 5791 5780 5798 5801 5802 5800 5801 5800 5799
5665 5671 5676 5682 5694 5696 5699 5699 5699 5696 5718 5723 5726 5733 5738 5742 5750 5755 5760 5764 5769 5772 5775 5777 5779 5780 5782 5785 5785 5785 5786 5783 5780 5777 5774 5782 5780 5776 5783 5791 5791 5792 5789 5788 5788
5649 5655 5663 5674 5680 5682 5681 5682 5678 5696 5705 5708 5711 5712 5719 5727 5735 5742 5746 5751 5757 5760 5762 5764 5767 5770 5773 5774 5775 5774 5773 5772 5769 5769 5768 5768 5765 5771 5771 5776 5781 5781 5778 5778 5778
5632 5638 5648 5663 5666 5668 5664 5661 5673 5691 5696 5696 5697 5699 5705 5713 5720 5725 5731 5737 5745 5748 5751 5751 5752 5756 5760 5760 5762 5761 5759 5769 5760 5758 5755 5757 5758 5760 5762 5764 5766 5768 5768 5768 5769
5613 5620 5636 5644 5651 5651 5648 5648 5664 5676 5678 5679 5682 5687 5691 5695 5701 5708 5715 5724 5729 5735 5736 5738 5739 5742 5745 5748 5748 5749 5754 5753 5752 5750 5747 5745 5747 5749 5751 5752 5755 5757 5758 5759 5759
5597 5601 5625 5626 5628 5634 5628 5635 5649 5659 5663 5663 5675 5674 5679 5683 5687 5692 5700 5709 5714 5720 5723 5726 5727 5727 5731 5733 5739 5740 5738 5740 5742 5739 5740 5738 5738 5738 5739 5742 5742 5744 5747 5749 5748
5576 5586 5604 5606 5604 5610 5615 5627 5639 5643 5651 5652 5657 5666 5670 5671 5674 5678 5687 5695 5699 5703 5707 5714 5711 5714 5715 5718 5722 5724 5725 5726 5729 5734 5731 5726 5722 5729 5732 5733 5732 5732 5733 5736 5738
5555 5572 5581 5582 5582 5593 5604 5614 5619 5625 5633 5639 5644 5654 5662 5661 5659 5668 5674 5681 5684 5688 5692 5695 5693 5700 5703 5705 5703 5706 5714 5719 5718 5717 5715 5716 5715 5720 5724 5725 5722 5721 5721 5722 5724
5538 5548 5558 5559 5574 5580 5590 5598 5602 5613 5617 5623 5633 5637 5641 5646 5651 5654 5660 5664 5670 5673 5678 5676 5677 5683 5687 5696 5696 5696 5700 5703 5703 5700 5702 5703 5708 5709 5709 5710 5710 5710 5710 5711 5711
5514 5528 5540 5544 5556 5567 5575 5582 5588 5594 5601 5607 5611 5622 5631 5631 5636 5643 5649 5650 5652 5658 5660 5661 5664 5669 5677 5680 5681 5681 5685 5687 5685 5691 5684 5694 5692 5700 5699 5699 5698 5695 5695 5698 5700
5496 5512 5522 5532 5539 5547 5554 5564 5571 5580 5584 5592 5598 5612 5614 5613 5623 5636 5639 5637 5638 5641 5643 5645 5651 5655 5660 5665 5665 5665 5670 5671 5669 5672 5671 5678 5680 5682 5687 5685 5683 5684 5683 5684 5685
5483 5495 5502 5510 5519 5525 5535 5548 5558 5563 5567 5577 5585 5590 5593 5606 5612 5619 5619 5621 5622 5625 5628 5630 5637 5638 5641 5647 5648 5644 5657 5657 5659 5659 5660 5657 5670 5665 5666 5668 5670 5670 5670 5672 5673
Wind_Speed
37 36 35 34 33 31 29 27 25 24 22 20 19 17 16 15 16 16 14 14 15 15 16 15 14 12 11 10 8 7 7 9 11 8 7 10 9 7 6 9 10 8 8 7 7
38 38 38 37 36 34 32 29 27 25 23 22 21 20 19 17 17 16 15 14 14 15 15 15 14 13 13 12 10 10 10 11 11 11 8 10 9 10 8 10 11 12 10 9 9
40 40 40 40 38 36 34 32 30 28 26 25 24 22 21 20 18 16 15 14 15 15 15 15 15 14 14 13 13 13 13 13 14 13 11 12 9 13 11 9 12 14 11 11 12
41 41 41 41 40 39 37 35 33 31 30 29 27 25 24 22 21 19 17 16 16 16 16 16 16 16 16 15 18 16 15 16 16 15 14 14 13 14 12 12 14 16 15 14 14
40 41 42 42 41 40 40 38 36 35 33 31 30 28 26 25 23 21 20 19 18 17 16 16 16 18 16 17 19 18 18 17 16 17 17 17 17 15 15 18 16 16 17 17 16
41 42 42 43 43 42 42 41 40 39 37 35 33 32 30 29 27 25 24 22 21 19 18 17 18 17 16 17 19 19 19 19 20 21 21 21 20 17 18 20 20 17 18 18 17
43 43 43 43 43 43 43 43 42 42 40 39 37 36 34 32 30 29 28 26 25 23 21 21 20 19 19 19 21 22 23 23 23 24 22 24 21 19 22 20 23 20 20 20 19
47 46 46 45 45 45 45 45 45 44 43 42 40 38 36 35 33 32 31 30 29 27 26 25 24 22 21 22 22 24 24 24 24 25 25 26 19 25 24 23 23 23 22 22 21
51 50 50 49 48 48 48 48 48 47 46 45 44 42 40 37 36 35 34 33 32 31 30 29 28 26 26 25 25 25 28 29 28 27 28 29 25 26 28 25 26 25 24 24 23
55 54 52 52 52 51 51 51 51 51 50 49 47 46 43 40 39 39 38 37 36 35 33 32 32 31 27 29 28 31 30 31 31 32 32 31 30 31 28 28 26 26 26 27 27
62 54 56 55 55 54 53 53 54 54 54 52 51 49 47 45 43 43 41 40 39 38 37 38 37 30 30 34 33 33 34 33 34 36 38 37 34 34 34 31 26 27 29 28 29
69 67 61 57 58 57 56 56 56 57 57 55 55 53 51 49 47 46 45 44 43 42 42 40 37 35 36 36 35 34 36 35 37 43 46 44 40 37 37 32 30 29 28 29 30
41 65 66 66 61 56 58 58 58 59 62 57 56 57 55 53 51 49 49 49 47 46 44 43 41 38 39 38 38 36 37 38 43 45 48 47 44 38 35 32 28 28 29 30 31
44 41 48 74 74 66 63 60 61 63 65 64 59 59 58 57 57 54 53 52 50 47 46 47 43 41 41 40 39 40 41 42 42 45 45 43 46 34 29 32 31 29 32 34 33
53 50 42 41 53 72 69 68 68 65 66 67 65 63 63 62 60 55 55 55 53 50 49 48 47 44 44 41 41 44 42 41 41 43 46 44 45 33 27 27 28 30 30 33 34
59 57 57 46 38 51 69 72 74 71 77 75 71 68 68 64 62 61 59 57 55 54 52 51 51 49 46 44 43 42 42 41 44 45 53 41 43 47 29 29 29 32 30 34 35
61 62 62 61 43 37 41 50 61 67 75 74 75 74 73 70 67 64 63 61 58 56 56 54 53 52 51 48 47 45 41 44 49 51 55 46 47 47 41 33 33 34 37 37 35
65 66 67 61 62 60 47 44 56 60 58 66 68 71 72 72 71 69 66 63 61 56 56 54 55 52 50 44 41 40 46 50 51 54 55 53 49 42 42 39 34 32 34 34 32
68 70 69 62 63 64 63 65 50 45 55 61 68 68 64 63 61 61 64 65 64 61 56 52 54 50 46 44 40 44 47 35 42 43 46 45 44 41 42 44 40 31 30 30 29
69 71 69 66 67 64 62 63 54 51 53 56 59 57 58 64 67 63 60 56 54 51 48 46 49 52 50 50 48 46 45 44 45 48 51 52 46 43 44 42 39 36 31 27 27
69 70 68 68 68 61 68 70 54 52 49 55 55 56 56 53 57 65 65 61 58 54 48 45 49 52 49 48 45 43 47 46 45 49 49 51 48 47 47 44 39 38 29 24 26
71 70 68 67 69 69 71 67 72 73 68 62 54 51 57 54 53 53 58 59 56 54 53 50 49 54 55 53 51 50 52 52 49 47 52 55 48 47 43 40 38 39 37 31 27
75 70 69 66 69 68 66 68 66 68 62 65 61 55 53 53 55 53 53 52 51 52 49 49 57 55 56 57 58 55 50 47 47 49 54 54 47 46 42 41 41 39 41 39 36
75 75 72 73 71 66 67 73 74 70 76 75 61 61 60 54 55 56 54 54 51 52 47 50 56 56 56 51 51 50 48 45 48 55 54 51 48 47 45 41 40 42 42 41 41
76 76 75 75 72 72 66 69 76 78 77 75 76 71 66 59 56 53 51 51 52 52 52 53 52 53 48 48 52 52 52 52 59 57 59 51 52 45 45 40 41 44 44 41 41
73 75 76 74 73 72 73 73 65 73 78 78 73 67 69 67 59 50 48 53 53 51 50 50 52 54 55 52 53 56 57 61 63 61 61 56 54 49 40 43 45 47 49 49 47
73 72 75 76 75 75 74 71 72 63 68 73 71 67 71 69 58 56 58 57 58 55 53 53 47 50 55 53 52 58 54 53 51 50 52 57 50 48 46 46 44 45 48 46 45
Wind_Direction
220 221 220 218 218 219 219 217 215 215 215 213 206 199 194 190 189 190 190 191 192 195 201 205 211 214 220 230 242 260 288 314 317 324 341 325 308 293 284 275 286 280 283 298 303
224 223 223 222 218 217 216 215 216 216 213 206 201 199 196 195 195 190 192 196 201 206 211 214 220 225 232 238 251 266 285 298 307 301 317 310 303 287 284 287 292 280 270 276 285
225 224 222 219 218 218 217 216 214 212 209 207 204 201 200 200 203 201 200 206 209 215 220 224 229 232 240 248 257 268 284 295 292 293 305 304 309 281 294 294 281 273 275 267 263
223 223 221 218 217 216 216 216 213 212 209 209 207 205 206 206 210 209 211 213 219 223 228 232 237 242 246 256 263 272 279 282 284 290 298 298 299 286 292 278 274 282 281 271 270
222 221 220 220 218 217 216 214 213 213 213 212 211 211 213 214 215 217 217 220 224 230 235 240 243 246 252 258 268 272 274 279 279 284 290 290 292 293 285 279 270 269 273 272 274
222 220 219 219 218 218 217 215 213 215 215 216 217 218 218 219 221 223 227 228 230 235 240 244 248 252 256 260 269 274 278 280 282 282 285 287 287 292 276 278 281 273 269 270 275
221 222 222 219 218 218 218 218 217 217 219 221 222 224 223 223 225 226 230 234 237 240 244 248 253 256 259 266 271 278 282 282 281 281 282 282 288 283 285 278 273 273 267 266 269
226 224 223 224 222 221 221 221 221 222 222 224 226 227 227 228 230 231 233 236 241 242 246 252 255 260 265 268 275 284 281 279 280 283 283 285 286 282 282 278 270 267 265 266 265
233 230 227 226 226 225 224 224 225 225 226 228 229 229 230 231 234 235 237 240 242 246 248 253 256 261 267 273 279 282 275 279 286 288 287 283 281 277 277 275 270 267 264 264 263
237 234 233 231 229 229 229 228 228 228 230 230 231 233 233 234 236 239 240 243 246 249 252 256 258 261 270 274 275 276 281 283 286 285 280 279 280 277 277 273 269 267 263 262 261
236 237 237 236 234 234 234 234 233 233 232 234 234 235 237 236 239 242 245 246 249 251 254 255 260 267 267 269 275 279 282 280 284 281 283 282 279 279 277 276 273 264 260 262 263
231 236 238 240 238 238 237 238 238 239 237 237 238 237 239 240 240 244 247 250 251 254 255 258 262 264 267 272 276 277 279 284 282 284 281 278 277 271 273 276 270 265 265 267 266
234 233 236 240 240 243 243 244 244 244 241 237 241 241 243 243 243 244 248 250 253 255 258 260 263 264 269 273 277 276 277 280 281 278 280 280 273 271 271 271 268 267 268 270 269
248 239 234 236 236 242 244 246 248 248 248 240 240 246 244 246 246 246 249 252 254 257 258 261 263 269 269 273 274 276 278 278 278 277 278 274 276 266 265 270 274 279 274 269 268
254 257 239 236 238 238 243 245 247 248 250 245 242 243 246 248 249 248 251 252 255 258 259 262 264 265 270 273 272 279 276 273 272 272 273 273 279 277 262 263 274 274 271 270 270
243 246 251 239 236 234 239 243 244 248 245 245 243 241 246 248 251 254 253 253 255 258 260 263 266 269 269 271 272 271 272 272 270 271 270 275 277 277 276 274 275 276 276 272 271
240 240 246 252 230 241 235 236 233 236 248 248 249 250 250 252 252 254 256 258 260 261 262 266 266 268 268 268 267 268 268 267 267 266 272 275 270 278 284 279 277 278 278 275 274
240 239 240 244 249 253 252 248 242 237 236 248 250 251 253 254 255 254 255 256 258 261 264 266 265 266 270 269 265 260 257 259 271 270 272 271 273 277 281 282 283 283 280 270 272
241 239 239 238 246 245 250 257 252 244 240 243 246 249 252 252 251 254 254 256 257 261 265 267 267 260 257 260 256 256 257 268 265 269 274 276 274 273 278 288 290 287 275 267 264
243 241 237 237 237 241 242 248 249 250 239 243 243 246 251 254 254 254 254 253 253 261 263 263 263 263 261 258 249 255 263 262 263 270 272 273 278 281 286 287 288 288 286 270 263
241 241 236 237 235 237 233 238 237 235 249 240 237 242 248 253 255 254 255 255 258 260 258 257 259 262 260 257 257 258 261 264 263 264 273 279 271 276 282 292 287 284 287 275 263
240 239 237 237 235 233 235 240 243 248 248 248 241 243 245 249 251 254 255 258 259 261 261 258 257 258 261 260 258 256 259 259 263 275 277 272 268 280 282 287 287 283 286 280 264
239 237 236 235 236 234 234 231 239 239 243 239 241 243 240 249 256 251 251 254 258 260 260 255 250 253 258 259 258 258 262 268 266 269 269 273 270 280 279 276 279 272 271 273 263
237 236 234 236 236 236 233 229 233 235 236 242 242 244 244 245 247 249 252 254 259 259 257 256 255 255 257 264 264 260 263 265 263 265 273 272 275 277 281 276 269 269 270 267 261
236 234 234 235 236 236 233 234 235 237 237 241 245 244 246 250 246 245 252 258 260 259 259 258 257 260 257 261 260 263 260 261 265 270 271 273 271 273 272 278 276 273 269 269 265
235 233 233 234 236 236 234 230 236 237 236 240 243 244 244 248 248 245 252 255 260 264 268 266 265 261 258 260 258 261 261 264 266 267 274 277 271 274 280 266 264 266 268 267 268
233 234 232 232 233 234 235 234 231 230 237 238 239 239 242 245 251 249 253 255 254 258 264 266 260 262 259 259 263 260 261 267 268 262 272 269 272 271 261 267 265 264 262 264 268